GFSGBSN_sfc_30mbdewp_204.txt.gz
Dewpoint
45 46 45 47 47 47 47 47 48 49 49 50 51 52 52 52 51 52 55 57 55 55 57 57 55 53 48 41 37 38 41 36 33 30 24 24 21 17 14 14 17 15 14 18 17 19 18
43 44 43 46 46 47 47 48 50 48 49 50 50 51 52 52 51 51 52 57 56 55 57 57 54 52 47 41 40 39 39 34 31 28 24 21 18 20 16 15 16 20 20 19 20 17 16
37 42 43 43 44 41 43 46 48 50 49 49 50 50 52 52 52 51 52 51 57 55 56 56 54 50 46 42 42 39 39 37 36 33 26 27 26 20 20 17 24 22 16 9 13 12 12
35 37 40 41 44 43 43 44 44 47 50 49 49 50 51 52 52 52 52 51 56 56 57 56 53 49 45 46 45 43 42 40 37 35 32 31 29 25 21 26 22 16 17 3 8 14 16
39 35 35 41 42 42 44 43 43 45 48 50 49 49 50 52 52 51 51 50 55 56 57 54 50 48 43 44 44 44 42 37 34 33 32 30 28 23 24 14 10 13 -3 5 3 7 10
40 40 35 35 40 42 41 42 44 44 46 48 50 49 50 50 51 52 51 50 55 56 55 52 49 45 45 41 41 40 41 40 34 31 30 28 25 20 18 13 1 -1 7 3 3 10 13
40 40 36 36 39 41 42 42 43 44 44 46 48 50 50 50 51 51 49 47 50 49 50 43 43 38 36 42 40 39 39 38 35 30 25 27 20 15 13 14 7 7 5 1 -0 7 14
37 38 35 38 39 41 41 42 45 46 46 45 46 49 50 49 50 51 46 43 48 47 44 46 42 43 38 42 38 36 38 33 32 26 25 25 20 15 14 13 15 11 6 3 4 7 11
36 36 35 38 41 41 42 45 47 48 48 47 45 49 50 49 49 50 45 42 46 53 41 42 45 43 43 43 36 34 36 32 29 26 23 21 15 18 16 17 14 11 9 7 5 5 7
39 36 36 38 42 40 43 45 48 49 49 48 45 48 49 49 46 47 44 42 42 52 37 36 41 42 41 40 39 36 34 30 27 24 22 22 20 19 18 17 13 8 11 11 7 7 -2
39 35 35 37 40 42 43 45 47 47 49 49 46 48 49 49 44 44 41 43 43 49 24 35 39 41 41 36 29 34 35 31 25 23 23 20 21 18 18 14 13 13 14 14 12 13 15
39 36 36 37 39 42 44 44 46 48 48 48 46 49 49 48 47 43 42 43 47 33 25 31 37 39 36 36 30 29 33 32 28 24 24 20 22 19 17 16 18 19 22 23 24 19 12
38 39 37 37 38 40 42 44 45 46 48 47 46 49 49 48 43 44 44 43 30 24 33 30 35 36 34 34 32 28 31 30 25 22 20 19 20 20 22 17 21 21 18 11 11 14 2
34 37 37 37 37 39 42 43 44 45 48 47 47 49 49 48 47 46 45 36 22 27 31 29 32 34 31 28 32 28 26 28 27 22 13 15 15 21 22 16 19 19 19 1 -1 -3 2
33 34 36 37 37 38 40 42 44 45 46 47 48 49 48 48 48 47 40 27 25 33 27 34 29 32 29 25 28 28 23 26 26 23 14 13 12 17 21 17 20 20 17 14 12 11 11
34 33 33 36 37 38 40 41 42 43 47 48 46 45 44 48 48 44 34 27 31 29 33 30 30 31 26 23 24 26 23 23 23 25 21 11 11 17 21 22 20 19 20 20 19 8 2
34 34 33 36 37 38 39 40 40 43 45 48 44 40 43 49 47 39 28 29 28 32 34 32 33 26 24 23 23 26 20 17 25 24 24 15 11 21 20 22 18 18 20 18 16 13 4
35 34 35 37 37 38 38 39 40 41 43 47 42 32 45 48 35 33 30 33 31 29 32 37 36 31 22 22 24 26 20 21 24 25 27 23 16 14 21 20 21 17 16 19 17 13 19
35 35 34 34 36 36 37 38 40 40 43 38 35 33 43 43 29 29 32 33 33 27 28 34 34 34 28 22 24 23 23 23 23 24 28 28 21 15 12 25 30 21 18 17 20 19 18
34 34 33 34 35 37 37 38 39 40 42 38 33 30 35 39 36 32 31 28 27 31 30 31 36 35 31 26 25 22 20 23 25 24 30 29 20 16 10 14 19 26 21 21 22 25 22
34 35 35 35 36 37 36 38 39 39 42 39 32 32 34 28 30 33 31 28 28 28 32 33 35 34 35 31 27 23 21 27 26 26 30 28 20 21 15 8 16 21 24 21 20 25 25
33 35 36 37 37 37 37 39 40 40 42 39 31 31 35 34 32 32 31 29 26 27 31 32 31 35 33 34 29 24 23 27 26 28 27 31 25 23 22 15 16 18 22 23 22 22 21
34 35 37 38 37 37 37 38 40 41 43 38 37 40 34 33 33 31 30 28 27 29 31 30 34 36 33 34 31 27 28 32 31 29 29 29 31 27 24 22 20 27 31 24 25 24 23
35 36 37 38 36 36 36 40 41 44 46 39 39 38 35 31 32 31 31 30 29 29 30 33 36 34 35 35 43 41 39 37 38 31 31 31 31 36 30 34 26 26 23 22 23 26 29
35 36 37 36 35 36 37 40 41 44 46 41 40 38 36 31 30 30 29 31 32 33 33 32 35 38 43 39 35 36 36 38 39 35 32 32 32 32 29 32 29 29 31 30 30 30 31
36 36 37 38 34 36 38 40 42 43 45 44 44 42 38 32 31 34 32 34 32 33 35 34 35 36 43 38 37 32 31 32 35 37 39 37 34 32 33 29 26 28 28 30 30 29 31
36 37 38 37 35 37 38 40 41 43 44 45 44 44 39 33 36 36 32 32 36 36 34 38 39 40 42 36 34 30 28 28 28 31 33 35 36 34 33 32 29 27 29 35 30 28 32
39 39 38 37 38 38 38 40 40 42 43 43 40 43 39 34 36 37 35 32 38 37 33 39 38 38 38 34 34 33 32 29 28 30 33 34 32 32 34 32 28 30 33 29 31 35 36
39 39 38 38 38 38 39 40 39 39 42 41 37 40 41 37 35 39 38 38 38 42 39 40 36 37 37 34 35 35 32 34 29 25 30 29 30 30 31 31 31 33 32 35 35 36 36

GFSGBSN_sfc_30mbdewp_207.txt.gz
Dewpoint
39 40 44 45 45 47 46 45 47 49 49 50 50 50 51 51 53 52 52 50 54 57 55 57 57 55 50 42 37 39 39 42 34 28 26 21 20 17 13 11 11 15 10 12 11 13 13
41 38 38 41 43 43 44 42 43 46 48 50 50 51 51 52 52 52 51 51 50 57 55 57 57 54 48 39 38 39 38 36 30 27 22 20 19 17 15 12 11 13 13 10 13 12 13
41 43 37 37 40 42 42 43 43 43 44 46 50 50 51 51 52 53 52 51 51 52 56 57 56 52 47 40 39 39 38 35 34 32 26 22 21 19 16 14 15 18 16 10 9 10 9
37 40 42 39 38 41 42 43 44 44 44 44 46 50 50 50 52 53 52 51 51 51 56 57 55 51 43 40 43 42 42 40 37 33 30 28 26 22 18 20 19 14 11 6 2 5 7
36 37 41 42 39 39 41 42 44 44 44 45 46 48 50 50 51 52 52 51 50 51 53 56 53 49 35 41 41 42 41 36 35 33 31 29 27 22 19 17 13 10 3 3 0 6 5
42 36 39 41 37 37 39 41 44 44 45 45 45 47 50 50 51 52 51 51 48 51 54 55 51 44 39 32 37 39 38 39 35 31 29 28 23 19 19 15 3 2 4 4 -1 4 7
41 41 37 39 36 36 39 42 43 44 45 46 46 46 47 50 50 52 50 44 39 44 50 46 44 40 28 31 36 36 36 35 36 31 26 26 20 14 14 13 8 3 1 1 3 2 7
40 40 40 38 36 37 40 43 42 44 46 47 48 47 46 47 50 51 47 39 32 48 45 48 43 43 37 36 34 35 35 33 34 29 26 23 20 17 14 11 10 11 6 5 3 1 5
35 37 40 38 36 37 40 42 43 45 46 48 49 48 47 46 50 49 45 40 37 50 44 44 47 42 40 37 32 34 33 32 29 28 25 21 18 20 16 12 10 11 9 7 3 3 6
35 38 40 39 36 38 40 41 43 44 46 47 48 49 48 46 48 46 44 42 39 48 36 37 41 45 41 36 33 33 33 30 26 24 24 22 20 16 18 13 12 10 10 7 6 5 1
35 35 40 40 38 38 39 40 42 44 45 46 48 49 48 47 46 44 42 43 40 44 22 26 37 42 41 38 33 33 34 31 25 23 24 22 20 18 16 14 13 12 9 7 7 10 6
37 35 36 39 39 38 39 40 43 44 45 46 48 50 48 47 48 42 43 42 42 30 21 25 35 38 37 39 36 26 28 31 25 22 23 21 20 19 18 17 15 14 12 14 11 9 5
38 36 34 34 36 38 38 40 42 43 44 45 47 49 47 47 44 45 44 43 31 21 26 21 35 37 36 35 35 27 28 27 23 20 18 19 18 19 19 16 17 14 15 11 9 9 6
38 36 36 34 34 37 38 39 41 43 43 44 46 48 47 47 48 47 44 37 23 24 19 28 30 38 35 33 33 30 25 26 24 19 14 14 14 17 20 17 14 14 15 9 5 5 3
36 35 36 36 35 37 38 40 41 42 43 44 46 46 46 47 49 47 41 27 27 20 19 14 30 34 36 33 32 31 23 26 24 19 12 11 12 15 17 19 14 13 15 15 7 5 4
37 35 35 35 37 37 38 40 41 42 42 43 44 42 42 48 49 45 36 30 32 21 16 17 13 32 35 35 31 31 26 25 24 24 18 13 8 11 14 19 17 12 18 14 13 12 10
35 35 35 35 35 35 37 38 40 41 42 44 44 39 40 49 48 40 30 31 30 26 21 15 21 20 20 32 32 31 29 24 25 22 21 17 16 7 11 17 15 12 13 15 13 14 7
35 35 35 35 35 35 37 38 39 41 42 40 41 33 44 49 36 34 31 34 31 25 23 24 30 33 31 29 31 31 28 28 25 23 21 21 18 14 10 15 17 13 13 14 16 13 14
34 35 35 35 36 36 36 38 38 40 41 39 33 35 43 46 30 30 34 34 30 25 24 25 32 36 34 34 35 36 29 28 28 23 22 23 20 16 12 14 18 16 15 14 16 17 12
34 34 35 36 37 37 37 37 38 39 40 39 32 30 36 40 37 34 31 32 30 28 23 23 24 30 31 34 35 37 34 27 28 24 26 27 23 19 13 17 19 18 14 14 16 21 19
35 35 35 37 37 39 38 37 38 39 40 39 32 31 36 30 31 32 33 32 30 25 26 24 23 29 32 31 34 35 35 31 25 27 26 29 25 22 19 14 16 20 18 16 15 18 19
35 36 36 37 39 38 36 37 38 38 40 39 32 31 35 34 33 33 34 32 28 27 26 27 28 27 28 30 31 32 35 31 25 25 23 32 28 27 21 21 12 11 18 19 15 14 14
34 35 36 38 39 37 36 36 38 40 41 38 38 38 38 33 34 32 32 31 29 26 26 27 28 28 26 28 29 32 36 36 36 27 26 31 29 27 25 21 22 18 13 10 19 19 16
35 35 36 37 38 37 35 37 40 41 43 42 39 36 34 30 33 31 29 29 28 27 28 25 26 26 29 31 31 36 36 35 38 37 28 31 30 27 28 26 23 24 18 16 14 19 22
35 36 37 38 38 37 36 38 41 42 43 43 41 37 35 31 34 31 29 28 29 28 28 27 27 27 30 33 32 32 32 34 35 39 30 32 31 30 31 28 22 22 20 18 19 20 21
36 38 39 38 37 38 38 40 41 42 43 45 42 40 38 33 31 36 29 29 29 29 29 30 30 30 33 33 32 26 26 31 34 36 30 30 32 31 35 28 24 23 22 22 23 22 22
38 40 39 37 38 38 39 41 41 41 42 44 42 46 41 35 33 36 34 32 31 32 33 33 32 32 36 35 30 30 29 35 28 27 31 28 30 30 32 30 24 23 23 25 28 28 32
39 40 39 38 39 39 40 41 40 40 39 43 41 43 43 37 35 37 37 35 34 32 30 30 31 34 34 32 31 32 32 32 30 30 31 33 32 30 32 30 26 22 21 22 30 31 30
39 40 39 39 39 39 40 41 40 39 37 41 38 41 42 38 37 39 38 37 36 35 31 30 34 35 36 33 33 35 32 35 34 32 34 32 33 31 30 31 29 29 27 29 32 31 30

GFSGBSN_sfc_30mbdewp_210.txt.gz
Dewpoint
40 42 43 39 40 43 44 44 45 45 46 46 48 50 50 49 50 52 53 52 51 51 53 57 57 58 53 43 37 36 38 39 38 33 29 24 20 18 15 13 11 10 10 10 9 10 11
38 39 42 44 39 38 40 43 44 44 45 45 46 47 50 51 51 52 53 52 51 50 51 56 57 57 52 40 36 36 38 35 32 27 24 21 18 18 15 13 11 10 11 12 10 10 9
40 38 38 42 44 42 38 40 41 41 44 46 45 46 47 51 51 52 52 53 51 51 51 52 57 55 49 40 36 35 38 36 32 30 28 22 19 17 16 16 15 13 11 14 14 10 10
42 42 39 39 42 43 41 41 41 41 44 44 45 46 46 48 51 51 52 53 52 51 52 52 56 54 46 39 41 38 39 36 36 34 31 29 26 22 20 17 17 13 13 12 9 7 5
39 41 42 38 40 41 41 40 42 42 44 45 46 46 46 47 51 51 51 52 52 51 52 51 53 52 43 38 37 38 38 38 38 35 33 29 27 25 21 17 15 15 10 6 5 5 2
38 39 41 42 41 40 38 37 41 44 45 45 45 46 47 47 49 51 51 52 49 50 48 49 52 47 47 36 32 33 39 38 37 33 31 28 25 22 20 14 11 8 8 6 3 2 3
39 37 40 41 40 40 37 36 41 43 44 45 45 46 47 47 47 51 50 46 40 37 41 45 46 46 36 43 29 33 34 34 35 34 28 27 23 17 15 15 11 8 3 -0 2 3 4
40 38 37 37 40 40 37 36 41 43 43 45 46 47 49 48 47 49 49 43 32 41 34 42 42 47 44 42 32 29 32 31 30 30 30 26 22 19 15 12 12 11 9 3 3 3 5
39 38 37 39 41 41 39 39 40 41 43 44 46 47 48 49 47 47 47 43 40 38 36 36 46 45 44 42 38 28 31 30 26 28 28 25 23 21 16 13 12 11 9 8 7 5 4
39 39 37 36 40 41 41 40 40 41 43 44 46 47 47 48 45 42 44 45 41 44 33 28 37 44 44 42 37 34 33 30 26 25 27 25 23 20 18 16 13 11 9 9 9 8 5
39 39 39 37 36 37 38 39 40 41 41 43 45 46 47 49 41 39 42 44 44 41 16 16 23 39 43 42 35 34 33 30 26 24 24 24 22 20 18 16 17 13 11 9 8 8 7
39 39 39 38 36 35 36 38 40 40 40 42 44 44 46 49 47 41 43 44 43 30 19 13 23 28 36 40 39 35 32 31 29 25 23 20 22 21 19 18 16 16 12 11 12 10 9
39 39 37 37 37 37 35 38 39 39 40 42 44 45 45 48 43 44 46 44 31 22 19 13 25 33 34 34 36 36 31 29 28 24 21 19 18 19 20 17 18 16 14 11 11 10 10
38 39 38 36 36 36 37 38 40 40 42 43 44 44 44 46 47 44 46 37 24 27 19 9 9 32 33 32 34 33 32 29 29 25 19 15 15 18 19 18 16 18 16 14 8 8 7
38 39 37 36 36 36 37 37 40 41 42 42 43 42 46 47 48 47 41 26 27 24 22 15 7 9 26 32 30 34 33 31 26 27 20 13 12 16 18 17 18 16 16 16 14 14 13
38 36 34 36 36 36 35 36 39 41 41 43 41 41 43 47 48 46 37 30 32 26 18 17 11 9 22 25 30 33 32 31 26 25 25 19 13 12 14 16 18 18 17 16 16 13 13
37 35 35 36 36 36 36 37 38 40 41 43 41 39 42 46 48 40 31 32 30 29 22 15 14 10 10 27 29 28 34 34 30 26 26 23 20 16 11 14 14 18 16 16 16 16 14
37 35 35 36 35 36 38 38 38 39 41 41 37 33 44 47 35 34 31 34 34 27 27 22 16 13 14 14 27 32 32 33 33 28 25 25 22 19 16 13 16 18 17 17 17 16 17
37 36 36 36 36 37 38 39 39 39 40 40 33 32 43 45 30 30 33 33 33 28 26 25 23 25 23 15 16 19 26 34 38 33 26 28 24 21 19 17 15 15 19 18 17 19 18
36 36 36 36 37 37 39 40 38 38 39 41 34 29 36 36 36 32 32 32 33 33 30 26 24 24 28 29 28 30 30 32 34 37 38 30 27 24 19 17 16 17 16 17 16 16 19
35 36 36 36 37 38 39 39 36 37 39 40 33 31 36 31 31 34 34 33 31 31 31 30 29 23 27 28 29 31 34 34 35 35 37 37 27 25 24 21 19 15 18 17 16 16 17
36 35 36 37 37 38 40 39 37 37 38 38 31 31 32 33 34 33 33 31 31 29 29 30 29 30 24 24 26 25 27 29 29 27 33 36 33 31 26 22 20 18 16 18 18 17 15
36 35 35 37 39 38 39 37 37 38 40 36 38 38 35 30 29 32 31 32 30 30 31 30 29 28 26 27 27 28 30 30 33 35 34 37 35 34 29 26 23 19 20 18 18 18 18
35 35 38 38 39 38 37 38 39 39 40 41 39 38 33 28 30 29 33 33 31 31 30 30 29 28 27 29 29 31 29 29 31 33 35 35 34 34 32 29 22 24 22 21 20 20 18
35 37 38 39 38 38 38 39 40 41 41 41 41 39 34 29 30 28 28 35 34 31 31 31 31 30 33 28 27 27 27 29 29 30 33 35 33 31 31 29 27 25 24 22 20 19 21
37 37 40 39 38 39 39 40 41 42 41 40 41 43 39 31 31 30 27 28 33 34 32 32 32 34 33 30 29 26 22 26 20 21 27 31 32 31 33 30 25 27 26 26 25 21 20
36 37 40 39 39 39 39 40 41 42 40 40 41 45 40 31 34 35 34 34 34 33 34 32 32 33 34 32 29 28 25 24 22 20 20 28 34 31 31 31 27 26 27 23 22 22 25
35 37 39 39 39 39 39 41 41 41 40 37 38 43 38 33 35 39 38 36 34 35 33 32 33 34 34 30 29 27 30 26 24 24 21 26 28 32 33 32 27 27 24 21 25 27 27
34 35 37 39 39 39 39 39 40 40 40 38 36 41 40 36 37 41 40 40 38 38 36 35 30 28 33 30 32 31 26 31 26 22 26 24 27 34 34 33 31 28 25 26 28 35 32

GFSGBSN_sfc_30mbdewp_216.txt.gz
Dewpoint
43 43 43 42 41 42 44 44 42 41 41 42 43 44 46 45 45 46 49 52 52 53 53 52 51 54 55 50 44 44 45 42 41 36 30 29 27 24 23 21 20 18 16 16 15 14 11
41 41 43 43 44 41 43 43 42 41 41 41 43 44 46 45 45 46 48 51 52 52 53 52 52 53 52 43 43 44 47 45 39 38 34 32 29 25 23 22 20 18 17 17 16 14 13
41 41 39 42 42 44 43 42 41 40 40 41 43 45 46 46 46 46 47 49 52 52 53 52 52 48 51 47 47 49 47 42 42 41 38 33 29 28 24 20 21 20 18 17 15 14 14
38 40 40 39 41 43 43 42 42 40 39 41 44 44 47 46 47 48 48 49 51 52 52 52 51 47 45 52 51 49 48 42 39 37 36 35 34 30 27 23 21 18 18 14 15 14 14
39 41 41 40 39 39 41 42 42 40 39 42 43 44 46 47 47 48 49 49 51 51 52 52 48 46 42 51 50 49 48 44 39 37 37 37 35 30 26 22 18 18 14 14 15 14 13
39 40 40 40 39 38 39 41 42 42 41 41 42 43 45 46 48 49 49 49 49 51 49 50 47 39 43 46 47 45 44 41 34 35 37 37 34 29 24 22 11 14 15 15 14 14 13
41 40 40 40 39 38 38 41 42 42 42 41 42 43 44 46 48 48 48 45 42 41 43 38 33 33 38 47 46 45 36 35 36 35 35 35 32 28 24 24 22 19 15 14 14 15 14
42 41 40 40 40 40 38 37 41 41 41 41 42 43 43 45 47 48 48 41 39 44 38 40 37 40 38 39 44 45 43 29 32 32 34 34 31 31 27 25 23 22 20 17 17 15 13
41 41 40 40 40 39 40 38 37 37 39 40 41 42 42 44 45 46 43 41 42 45 36 37 39 36 33 28 40 42 43 32 29 33 33 33 30 32 26 24 23 21 19 18 15 14 13
41 40 39 40 40 40 38 39 39 37 37 39 41 41 43 44 42 44 41 44 45 45 31 28 34 36 32 26 32 43 42 40 30 27 33 32 33 31 27 25 24 20 20 17 15 13 10
40 39 39 40 40 40 38 38 38 38 39 40 40 41 43 43 42 39 41 44 45 43 17 20 25 38 34 26 25 31 43 41 35 29 29 26 28 31 29 25 24 22 21 17 15 14 12
40 40 39 39 40 40 37 37 37 38 39 38 39 40 42 41 43 42 42 46 42 28 16 16 22 37 35 30 22 36 37 41 38 37 31 27 28 28 30 30 26 24 21 19 18 17 13
40 41 39 39 38 36 37 38 36 36 36 37 40 40 41 42 37 41 46 43 27 20 17 17 19 36 35 34 30 27 34 35 34 32 28 28 28 27 27 27 27 25 20 17 15 14 11
40 40 39 38 37 36 38 35 35 35 36 38 41 42 41 41 41 43 41 33 21 23 19 16 16 30 33 34 35 28 24 30 35 32 28 26 24 27 27 25 25 24 22 19 14 14 12
37 38 40 39 37 36 37 34 36 38 41 41 42 39 39 40 43 43 36 25 24 24 24 18 17 14 31 33 34 35 29 25 33 33 29 26 26 26 26 26 25 24 21 22 19 18 15
39 40 40 39 38 36 36 37 38 40 41 41 39 38 38 40 44 41 33 27 27 32 28 21 17 16 12 29 30 33 34 33 28 34 32 28 26 26 24 24 24 23 24 20 20 16 15
39 38 39 38 37 35 36 37 38 40 40 40 39 34 37 43 46 37 27 28 28 30 30 31 21 20 13 15 27 29 36 36 35 32 37 34 29 27 27 23 21 20 20 20 21 19 16
37 36 35 36 36 35 35 38 38 41 39 37 36 27 38 42 35 34 29 32 30 29 31 31 28 28 20 15 15 17 19 30 37 36 33 34 30 28 27 28 26 22 17 19 19 18 19
38 37 36 37 35 35 37 38 40 40 36 37 33 31 36 43 29 30 32 31 32 30 32 30 29 29 28 26 22 20 18 21 29 34 38 34 33 29 27 27 27 25 24 23 21 21 18
35 34 35 38 35 35 38 39 40 40 36 38 33 24 28 37 33 31 31 31 28 31 31 32 32 31 30 29 29 27 28 28 30 30 37 40 37 33 26 25 24 21 21 21 21 20 19
36 35 35 35 35 38 39 40 41 39 34 37 31 26 30 24 27 30 31 31 29 28 31 33 33 30 30 29 28 27 26 27 30 35 36 36 33 33 35 37 37 34 35 34 21 21 20
36 35 34 36 39 39 41 39 39 38 37 34 28 29 32 30 29 28 28 29 29 32 32 29 29 30 32 30 30 27 27 26 26 31 32 35 32 35 31 34 34 31 31 31 34 32 21
35 35 33 37 39 40 39 39 39 39 37 32 33 36 33 26 25 24 24 25 26 32 31 34 33 32 32 31 31 32 32 31 32 31 31 29 29 29 25 26 27 26 28 28 32 34 30
32 34 32 37 37 40 39 40 40 41 39 36 33 33 29 22 24 24 23 24 24 27 28 30 31 31 32 33 33 33 32 32 33 33 34 30 29 29 24 25 19 22 29 29 29 30 34
34 35 34 36 38 40 40 39 39 40 40 39 38 35 30 22 23 23 24 26 27 27 28 28 29 32 34 33 32 29 26 27 27 30 31 33 31 27 25 21 20 20 24 26 31 28 28
34 34 33 33 37 38 40 39 39 39 39 39 38 38 33 27 22 29 30 32 28 27 28 29 31 32 35 33 31 24 21 21 19 25 28 31 31 30 25 22 16 16 20 23 23 18 24
34 33 33 33 35 37 38 39 40 39 39 38 37 38 34 27 27 29 29 28 34 33 31 33 32 32 35 31 28 26 24 25 21 21 21 27 27 26 25 24 24 22 21 21 18 20 20
35 34 33 33 33 35 37 37 38 39 39 38 34 37 35 28 27 30 31 32 32 33 29 32 33 34 33 30 29 28 27 29 28 27 21 21 23 24 25 23 20 25 25 22 22 22 20
36 35 35 34 33 33 34 36 36 37 37 37 34 36 40 34 28 31 33 34 34 34 34 34 34 33 33 31 32 30 29 30 28 23 27 23 24 21 24 22 27 26 25 25 26 23 23

GFSGBSN_sfc_30mbdewp_222.txt.gz
Dewpoint
41 42 41 41 42 43 43 44 43 43 42 42 41 43 44 44 44 45 46 46 47 47 48 51 50 51 49 48 47 44 50 48 42 38 37 32 27 24 20 21 21 20 20 19 19 18 18
39 41 41 41 41 42 42 43 43 43 43 41 41 42 43 44 45 45 46 46 47 48 48 50 50 51 46 35 46 48 50 50 45 43 39 35 32 30 27 25 21 20 19 19 19 18 17
41 40 42 42 41 41 40 40 41 42 43 42 42 42 42 43 44 45 46 47 48 48 48 49 51 50 42 37 41 39 42 45 49 46 40 36 35 33 29 25 23 20 19 19 18 17 15
40 40 41 41 41 40 40 40 42 43 44 43 42 42 42 43 44 45 46 47 48 48 48 49 51 49 37 40 41 41 44 49 49 46 40 37 36 34 32 30 26 21 18 15 14 15 15
42 42 41 41 40 41 40 39 39 42 42 42 42 42 42 44 44 45 46 46 47 46 48 49 48 44 35 39 43 48 47 41 43 45 46 44 35 34 31 26 23 21 15 14 13 15 14
43 42 41 41 40 40 40 40 40 39 40 41 41 41 41 41 44 44 46 45 45 47 47 48 47 36 36 22 43 49 50 48 47 44 39 33 33 32 29 26 13 15 17 16 13 13 14
42 42 41 40 39 40 40 41 40 41 40 39 38 38 40 41 42 43 44 42 33 35 42 35 34 33 27 34 33 41 35 46 45 41 34 33 28 29 31 29 26 18 16 14 15 15 14
40 41 41 40 39 40 40 40 39 39 39 40 38 39 41 41 42 43 43 38 35 40 33 38 36 37 37 38 33 28 38 41 41 36 33 30 26 26 32 31 26 24 21 19 20 20 18
41 42 41 40 40 40 40 40 40 38 39 38 39 41 40 41 42 42 41 39 43 42 32 33 36 37 37 38 34 29 24 40 34 36 32 26 19 29 30 30 28 26 23 22 20 19 19
41 41 41 41 40 40 40 39 38 38 38 37 38 38 40 42 37 40 34 44 44 45 26 24 31 33 37 34 31 32 24 38 37 34 32 28 23 26 26 28 29 26 26 24 22 19 16
39 42 41 41 40 40 38 38 38 40 39 35 36 36 39 40 38 37 36 43 44 42 11 16 28 36 35 29 21 27 26 37 37 33 26 27 26 23 25 30 29 26 26 24 22 20 17
39 40 41 40 40 40 38 37 38 38 35 35 37 38 39 39 39 39 41 41 39 25 12 14 27 33 31 30 28 22 23 35 32 35 37 35 34 28 27 30 32 29 26 24 21 20 16
39 38 40 40 40 40 39 37 37 37 37 39 40 40 41 41 33 40 40 36 20 18 18 14 22 32 29 28 28 26 33 31 27 31 32 34 34 35 32 32 32 30 24 22 19 17 16
41 39 40 40 40 40 39 37 37 38 38 40 41 42 41 41 41 40 38 27 15 17 22 21 19 19 26 30 30 26 23 27 32 28 31 27 25 31 32 29 31 30 28 23 14 12 14
36 39 39 39 40 39 38 34 35 37 40 41 41 38 37 39 41 41 32 19 15 23 27 29 25 14 15 29 29 29 25 21 28 32 24 27 29 28 29 28 26 24 27 29 24 22 18
37 38 38 37 36 37 37 33 35 38 40 40 37 35 34 44 42 38 27 17 21 29 28 31 26 18 15 19 23 27 29 34 26 25 32 30 25 30 28 28 26 25 25 20 24 22 18
37 38 38 38 37 39 34 33 36 38 40 39 33 28 33 45 41 33 23 19 24 24 27 28 29 28 27 26 23 22 27 32 32 35 27 31 31 27 31 28 26 27 24 24 22 23 20
34 37 36 36 36 38 33 35 37 40 41 35 31 20 34 43 31 32 26 24 24 22 28 28 30 30 29 27 25 25 21 23 35 30 27 27 31 28 28 29 31 27 26 25 23 22 23
34 36 36 34 36 36 33 37 40 41 40 34 28 27 32 40 26 28 28 29 29 26 26 26 29 30 31 29 25 26 29 29 35 32 27 30 31 26 25 29 32 32 31 28 25 23 22
35 35 35 35 35 36 38 40 41 40 39 33 27 20 22 29 32 28 24 23 26 29 30 32 27 29 28 26 28 28 29 29 30 30 32 34 29 23 21 26 30 30 31 31 28 25 23
38 36 35 34 34 35 39 40 40 40 38 31 27 21 25 18 21 25 26 25 24 26 31 31 32 29 28 26 25 25 25 28 29 29 30 34 29 31 30 30 32 32 31 32 32 29 28
37 36 35 34 35 35 39 40 39 40 38 29 23 23 27 23 24 26 21 18 20 23 23 23 25 26 30 29 30 29 30 29 28 30 29 30 29 32 29 31 32 29 32 34 35 33 31
36 37 35 34 35 35 38 40 40 41 36 29 29 31 27 23 22 21 18 20 23 21 20 23 24 25 24 26 29 34 36 35 34 32 31 31 29 26 22 27 29 26 28 30 33 33 33
37 35 35 36 36 35 36 39 40 40 39 32 30 31 27 20 22 21 21 20 20 21 21 22 25 26 27 26 30 30 29 29 29 31 33 29 29 27 23 24 17 21 24 27 28 28 33
38 36 35 35 36 35 32 37 40 40 40 37 35 33 30 22 24 23 22 21 21 21 23 23 21 27 31 31 28 25 25 27 28 28 29 32 29 25 22 20 19 22 24 29 29 28 32
38 37 36 35 35 35 33 34 38 39 40 38 34 34 32 25 20 22 22 23 22 20 20 26 27 26 31 30 27 20 17 19 18 21 29 31 31 26 23 19 15 15 20 23 28 22 26
37 37 37 35 35 36 34 33 33 36 39 39 36 36 33 27 26 24 22 22 24 26 21 20 23 23 30 25 24 22 19 22 18 16 20 26 27 23 22 20 21 21 20 22 21 18 21
37 37 37 37 35 36 36 35 33 34 36 37 36 38 34 29 27 26 25 25 26 25 21 20 20 27 25 25 26 23 23 21 21 19 17 19 22 23 25 22 18 24 22 19 20 21 21
35 36 37 37 37 36 36 36 34 34 31 34 34 37 38 32 29 31 32 31 29 28 26 26 22 23 24 24 25 28 26 27 26 21 22 21 21 20 22 20 23 22 21 23 23 22 22

GFSGBSN_sfc_30mbdewp_225.txt.gz
Dewpoint
40 41 42 41 41 41 41 41 42 43 43 42 42 42 42 42 42 44 44 45 46 47 47 47 49 50 47 41 40 49 48 46 46 40 37 34 28 25 21 20 22 21 21 20 19 19 18
41 40 42 42 42 41 40 40 41 42 43 43 43 42 42 42 42 43 44 45 46 47 47 48 48 50 44 28 34 46 36 38 46 45 42 34 34 33 27 26 21 20 21 20 19 19 19
40 40 41 41 41 41 40 40 42 43 43 43 43 42 43 42 42 43 43 44 46 46 46 48 48 49 41 35 38 36 39 42 43 42 42 38 33 32 32 26 25 23 20 20 19 19 18
42 42 42 42 41 41 41 40 39 41 42 42 42 42 42 42 41 42 43 44 44 45 45 46 48 48 36 39 40 39 37 33 41 48 45 41 36 34 33 32 28 22 20 13 12 16 16
44 43 42 41 40 40 41 41 42 41 40 40 40 40 40 41 42 43 43 44 44 43 45 47 46 43 33 39 36 40 43 42 40 45 44 43 43 33 32 30 23 23 10 16 12 16 14
42 42 41 41 40 40 40 41 41 41 41 40 39 39 38 41 42 43 44 44 43 46 45 47 46 36 35 24 32 35 48 47 45 43 40 41 34 31 32 27 12 14 18 16 12 14 16
42 42 41 40 39 40 41 40 40 40 39 39 40 39 41 41 40 42 43 41 32 31 35 33 33 33 33 35 34 34 30 44 46 44 24 34 26 25 25 29 25 16 16 13 16 16 14
41 42 41 40 40 40 40 40 40 40 39 39 39 40 39 39 40 42 42 37 38 40 31 33 34 36 36 35 32 30 30 37 43 32 33 30 23 23 26 30 30 28 23 19 19 19 18
41 41 41 40 40 40 39 39 38 38 39 39 37 37 38 39 40 41 38 40 42 42 32 28 31 30 32 35 33 29 27 39 38 38 31 23 23 24 24 27 30 29 27 24 21 20 20
39 41 41 41 40 40 40 39 38 39 39 37 35 35 39 40 36 39 34 42 43 43 26 20 30 32 35 35 31 33 25 26 38 34 36 31 28 22 23 25 28 25 29 28 25 23 17
40 41 41 41 41 40 40 39 38 38 38 36 37 38 40 40 38 34 35 40 42 38 10 11 24 35 36 29 26 25 29 18 19 37 31 30 28 29 21 24 28 27 28 27 26 24 22
39 39 39 41 40 41 40 39 38 38 37 38 41 40 40 39 39 37 38 40 39 23 9 14 27 30 32 31 29 28 28 27 23 25 34 31 37 35 27 23 29 28 27 26 25 23 20
39 41 39 40 39 40 41 39 36 37 38 39 40 40 40 41 34 39 39 35 17 15 20 18 20 22 26 28 28 24 28 21 13 17 17 22 28 33 35 31 24 29 27 22 20 19 18
36 39 41 40 40 40 40 38 35 36 38 40 41 41 41 40 41 40 37 21 9 13 17 21 27 27 17 16 28 27 22 24 26 28 24 16 16 26 32 31 28 26 25 19 12 10 11
36 36 39 38 37 37 37 36 34 36 38 41 41 37 35 38 42 40 29 13 6 16 26 26 24 21 17 23 26 28 25 22 24 28 20 22 24 29 30 29 28 28 28 27 22 24 22
36 38 39 40 38 38 40 34 34 37 39 40 36 34 32 44 42 37 26 18 17 22 26 22 21 29 22 23 23 24 23 35 31 33 32 22 17 23 29 30 28 25 29 27 28 22 18
35 35 37 37 37 37 37 34 36 38 40 39 31 25 34 44 40 33 22 21 21 23 24 23 26 24 24 23 26 20 21 23 30 35 30 29 28 22 24 22 26 25 25 25 24 25 21
34 34 35 36 35 37 35 35 38 41 41 35 30 12 34 42 30 30 26 28 28 24 24 24 28 26 24 25 25 24 20 20 29 33 24 28 24 21 23 25 28 30 26 24 23 20 21
35 35 34 35 35 36 36 39 41 41 39 32 27 27 32 39 25 27 25 25 30 30 27 29 26 28 29 26 25 28 26 31 30 33 32 34 29 19 14 19 26 27 29 33 28 25 22
36 34 35 34 34 34 36 39 42 40 40 32 27 13 22 26 28 27 22 21 24 26 25 31 32 31 27 26 26 24 25 26 28 26 30 34 31 28 21 22 26 26 27 31 35 30 27
36 38 36 34 34 35 36 39 41 40 40 30 26 21 25 11 20 23 23 24 21 19 26 26 28 29 25 26 27 25 26 28 30 29 31 32 27 29 28 29 28 30 31 29 29 31 29
36 37 37 34 34 35 36 38 41 40 38 29 23 22 25 24 22 23 24 18 16 18 25 19 17 22 21 22 24 24 28 28 27 31 28 33 28 31 28 30 30 28 29 32 27 28 33
37 36 36 36 34 35 36 38 41 41 35 29 29 30 26 22 23 21 18 18 22 21 19 20 19 19 19 21 25 27 28 29 29 29 28 30 27 26 20 22 22 23 25 26 28 33 31
37 36 36 36 36 37 35 36 40 40 38 32 29 31 27 19 21 20 20 20 19 21 21 21 22 21 21 23 28 32 30 29 28 28 28 25 27 27 21 21 16 18 19 25 27 27 31
38 36 35 36 36 37 36 33 35 40 40 36 35 33 29 22 23 21 21 21 21 21 21 21 21 23 26 26 27 23 23 25 26 27 27 28 26 22 20 17 16 18 22 23 22 21 26
38 38 37 36 37 37 36 35 34 36 39 39 36 35 30 25 20 21 21 21 20 20 21 22 24 22 26 30 25 19 16 16 16 21 29 27 28 24 22 18 12 14 16 20 25 22 23
36 37 38 36 37 36 36 36 34 34 35 38 38 36 33 27 25 24 22 21 23 23 21 21 21 21 22 18 16 18 18 21 17 15 20 25 27 23 22 20 20 19 21 24 19 17 21
36 36 38 38 37 36 35 36 36 34 34 36 36 38 34 29 28 28 26 23 24 25 21 21 22 23 24 22 23 23 23 22 22 21 21 18 21 22 22 21 17 22 22 19 19 22 23
36 36 35 36 38 38 37 36 36 37 36 34 33 36 38 32 29 32 32 32 29 27 24 25 22 22 22 22 21 21 18 20 20 19 24 22 25 22 24 20 25 26 23 25 25 25 24

GFSGBSN_sfc_30mbdewp_228.txt.gz
Dewpoint
40 42 42 42 42 41 40 41 42 43 44 43 43 43 42 42 42 42 42 43 44 46 46 46 47 48 43 29 20 46 43 39 40 43 35 31 23 16 13 11 13 17 9 14 14 15 16
40 41 42 42 42 41 41 41 42 42 42 43 43 43 43 43 42 41 41 42 43 44 45 45 46 48 40 26 22 30 34 32 32 39 38 33 28 26 21 15 15 14 14 13 13 14 16
41 42 42 42 41 41 41 41 40 41 41 42 42 42 42 41 41 41 41 42 43 43 44 44 45 45 40 31 31 31 31 30 32 35 37 36 32 31 24 21 22 18 15 12 15 14 14
44 43 42 41 41 41 42 42 43 42 41 41 40 40 39 40 42 42 42 43 43 44 44 44 46 43 33 33 35 33 28 25 24 25 36 38 37 33 32 27 26 20 15 7 5 10 14
42 43 42 41 41 40 41 42 41 41 41 40 41 40 39 42 42 42 43 44 45 44 46 46 41 39 25 33 29 31 37 30 28 25 36 38 37 31 31 26 16 19 4 7 1 9 7
43 42 41 41 39 41 41 41 41 41 40 39 40 39 41 40 41 42 44 43 41 43 39 43 41 33 29 24 29 30 30 45 40 31 37 38 34 28 26 21 8 6 10 7 3 6 9
40 42 41 41 40 40 40 40 41 41 39 39 39 40 39 39 39 42 39 35 31 29 33 30 26 24 24 25 29 30 29 37 43 35 20 28 28 24 19 20 16 6 5 10 6 8 11
42 41 41 40 41 40 39 39 39 39 40 41 39 36 37 38 39 42 38 35 36 38 32 30 28 27 27 26 26 24 29 32 35 27 20 23 26 23 23 21 21 19 12 10 10 13 15
40 42 41 41 40 40 40 39 39 39 40 37 37 36 38 40 41 36 37 34 37 40 30 28 27 25 27 27 23 21 28 29 32 30 16 14 21 24 23 23 22 24 20 15 11 15 16
40 41 42 41 41 40 40 40 39 38 39 38 38 39 41 42 36 35 32 35 38 40 26 14 17 27 31 31 25 26 23 23 30 30 26 17 15 16 21 21 23 22 22 22 21 19 15
39 39 39 42 41 41 41 40 39 38 38 38 40 41 41 42 36 31 31 35 38 40 11 11 19 35 34 30 26 25 29 21 17 29 30 22 17 16 17 20 20 19 22 22 25 24 21
40 41 39 39 40 40 41 40 38 36 37 39 40 40 41 38 37 34 33 38 39 27 11 12 21 21 21 19 28 25 26 25 14 9 20 26 26 28 18 19 19 20 22 24 24 23 20
39 41 41 40 42 42 41 39 38 36 38 39 40 41 39 37 33 38 38 35 21 16 11 12 19 21 20 16 17 27 17 19 11 3 -1 3 17 25 30 26 19 19 21 18 16 17 14
36 36 37 40 39 38 38 38 35 35 38 39 42 41 38 39 40 40 37 24 8 9 9 16 21 18 16 20 25 28 19 14 17 10 5 -2 -2 6 21 25 19 18 17 14 9 7 9
36 37 39 40 38 38 40 38 35 36 38 40 41 35 37 41 44 40 31 22 13 11 18 20 13 14 17 17 16 18 27 32 17 17 14 9 8 7 18 20 24 20 17 14 13 12 10
36 37 38 38 38 37 39 35 36 38 40 41 32 33 35 45 43 36 29 23 20 18 19 17 13 13 16 16 12 15 14 32 29 31 27 16 12 14 22 25 23 22 17 18 17 14 11
35 35 36 36 36 37 38 35 37 40 42 38 32 29 36 43 39 32 26 26 22 23 23 19 18 18 16 14 13 15 13 16 28 34 33 25 21 15 13 19 19 20 20 18 19 18 14
34 35 34 36 36 37 37 37 40 42 41 35 30 28 38 42 31 32 28 28 29 24 24 25 24 22 20 21 20 17 17 19 25 34 32 34 29 18 15 18 19 23 30 21 19 16 18
36 35 35 34 34 34 36 38 41 41 37 32 30 30 36 39 24 27 28 24 21 23 27 27 25 25 26 26 24 21 22 24 27 27 29 31 30 20 17 16 18 21 23 33 31 25 20
37 37 35 34 34 34 36 37 40 40 38 33 31 25 29 32 31 28 24 20 20 20 19 26 30 27 25 24 26 26 23 24 26 27 29 33 25 20 16 22 23 23 21 20 27 29 27
37 37 38 34 34 34 36 37 40 40 40 31 31 26 25 22 27 27 23 19 17 16 17 21 20 26 21 20 20 21 28 25 25 27 28 31 27 25 25 22 16 19 25 25 24 31 28
39 37 38 35 34 34 36 37 40 40 40 30 29 26 27 24 21 22 23 21 16 16 20 18 17 15 17 17 16 18 20 22 25 29 30 28 26 27 27 25 24 24 22 25 25 24 24
38 38 36 37 36 35 36 37 40 41 36 31 31 29 25 23 21 21 20 16 14 17 18 17 17 17 16 15 16 21 24 26 28 27 27 27 24 21 20 18 18 20 24 19 17 18 19
38 38 38 37 36 37 37 36 38 41 39 33 31 29 25 21 20 19 18 17 17 17 17 17 18 17 17 21 22 24 25 25 27 27 26 25 23 24 22 19 16 14 14 13 15 15 16
38 38 37 37 37 37 37 36 34 37 41 36 36 31 27 22 21 19 18 18 19 18 18 18 18 20 24 22 23 19 19 22 23 24 25 25 23 23 20 16 15 14 13 13 15 14 16
38 38 38 37 38 37 37 36 34 35 38 41 35 35 29 25 22 21 19 19 18 19 19 19 22 21 23 23 20 16 13 13 12 13 25 25 26 24 20 17 11 11 12 13 15 13 16
37 37 38 38 38 38 38 36 36 34 34 37 39 37 33 28 25 24 23 21 21 21 21 19 19 19 21 17 15 12 9 9 14 11 12 23 25 22 20 19 17 15 16 17 17 13 14
37 36 37 37 38 38 38 36 36 36 34 34 35 40 35 30 26 26 25 25 25 23 22 19 20 23 22 22 20 23 22 24 23 21 23 19 20 19 23 20 18 25 21 22 26 32 30
39 39 38 37 38 38 38 37 36 37 37 35 33 38 40 33 29 29 30 30 28 27 27 24 21 19 19 20 19 19 16 17 16 17 17 20 21 22 21 17 20 24 24 25 25 28 31